Location: Brachbach
(49.1847°N, 9.7240°E)
Time: 11:22:14
(UTC+00:00)

COSMOS 860 DEB - Pass Details

Date: 09 October 2024
Orbit: 890 x 988 km, 64.7° (Epoch: 09 November)

Event Time Altitude Azimuth Distance (km) Brightness Sun altitude
Rises 19:58:59 0° 319° (NW) 3,666 ? -31.9°
Reaches altitude 10° 20:01:33 10° 317° (NW) 2,727 ? -32.3°
Enters shadow 20:07:12 65° 278° (W) 1,078 ? -33.0°
